OAW580 LSZH-LFML

Flight info

Callsign OAW580
Flight time 1h 3m
Altitude 31000
Route VEBIT1X VEBIT T50 ROTOS Z669 ULMES DCT VADAR DCT GEVEA DCT INCUS DCT BALSI BALSI1D
Aircraft E190/M-SDE3GILORVW/S

Departure

Time 2026-05-06 17:57
Airport Zürich Airport (LSZH)

Arrival

Time 2026-05-06 19:01
Airport Marseille Provence Airport (LFML)
Time Latitude Longitude Altitude Speed Heading
2026-05-06 17:34 47.46168 8.55550 1396 ft 0 kts 184°
2026-05-06 17:48 47.46184 8.55552 1405 ft 4 kts 186°
2026-05-06 17:49 47.46206 8.55556 1401 ft 4 kts 183°
2026-05-06 17:49 47.46232 8.55552 1398 ft 4 kts 154°
2026-05-06 17:49 47.46251 8.55529 1405 ft 4 kts 112°
2026-05-06 17:49 47.46257 8.55494 1402 ft 4 kts 96°
2026-05-06 17:50 47.46257 8.55481 1402 ft 3 kts 96°
2026-05-06 17:51 47.46255 8.55519 1400 ft 8 kts 96°
2026-05-06 17:52 47.46249 8.55606 1400 ft 10 kts 96°
2026-05-06 17:52 47.46244 8.55678 1396 ft 12 kts 96°
2026-05-06 17:52 47.46235 8.55807 1399 ft 13 kts 96°
2026-05-06 17:52 47.46224 8.55953 1400 ft 15 kts 98°
2026-05-06 17:53 47.46160 8.56060 1400 ft 15 kts 141°
2026-05-06 17:53 47.46084 8.56166 1399 ft 16 kts 137°
2026-05-06 17:53 47.46001 8.56281 1397 ft 17 kts 138°
2026-05-06 17:53 47.45910 8.56404 1399 ft 18 kts 138°
2026-05-06 17:54 47.45813 8.56533 1397 ft 19 kts 129°
2026-05-06 17:54 47.45790 8.56719 1406 ft 19 kts 97°
2026-05-06 17:54 47.45773 8.56921 1398 ft 21 kts 97°
2026-05-06 17:54 47.45707 8.57029 1409 ft 11 kts 181°
2026-05-06 17:55 47.45668 8.56998 1409 ft 5 kts 244°
2026-05-06 17:55 47.45668 8.56930 1405 ft 0 kts 275°
2026-05-06 17:56 47.45679 8.56761 1409 ft 44 kts 277°
2026-05-06 17:56 47.45731 8.56023 1403 ft 99 kts 276°
2026-05-06 17:56 47.45817 8.54762 1404 ft 144 kts 275°
2026-05-06 17:57 47.45930 8.53185 1688 ft 159 kts 275°
2026-05-06 17:57 47.46045 8.51544 2034 ft 156 kts 274°
2026-05-06 17:57 47.46163 8.49879 2035 ft 173 kts 271°
2026-05-06 17:57 47.45946 8.48077 2520 ft 183 kts 248°
2026-05-06 17:58 47.45223 8.46554 3199 ft 182 kts 229°
2026-05-06 17:58 47.44325 8.45151 3482 ft 201 kts 230°
2026-05-06 17:58 47.43353 8.43576 3939 ft 207 kts 231°
2026-05-06 17:58 47.42460 8.41919 4555 ft 208 kts 236°
2026-05-06 17:59 47.41572 8.40097 4883 ft 227 kts 237°
2026-05-06 17:59 47.40647 8.38137 5344 ft 241 kts 237°
2026-05-06 17:59 47.39688 8.36038 5932 ft 249 kts 238°
2026-05-06 17:59 47.38741 8.33878 6631 ft 251 kts 241°
2026-05-06 18:00 47.37905 8.31594 7236 ft 256 kts 242°
2026-05-06 18:00 47.37065 8.29258 7794 ft 260 kts 243°
2026-05-06 18:00 47.36217 8.26882 8391 ft 263 kts 243°
2026-05-06 18:00 47.35364 8.24478 8986 ft 266 kts 243°
2026-05-06 18:01 47.34501 8.22046 9602 ft 270 kts 243°
2026-05-06 18:01 47.33626 8.19581 10222 ft 272 kts 243°
2026-05-06 18:01 47.32740 8.17109 10817 ft 274 kts 242°
2026-05-06 18:01 47.31853 8.14610 11431 ft 276 kts 242°
2026-05-06 18:02 47.30974 8.12130 12014 ft 278 kts 242°
2026-05-06 18:02 47.30062 8.09564 12606 ft 280 kts 242°
2026-05-06 18:02 47.29150 8.07008 13211 ft 283 kts 242°
2026-05-06 18:02 47.28232 8.04431 13785 ft 286 kts 241°
2026-05-06 18:03 47.27299 8.01823 14301 ft 289 kts 242°
2026-05-06 18:03 47.26472 7.99149 14789 ft 293 kts 246°
2026-05-06 18:03 47.25680 7.96362 15312 ft 296 kts 246°
2026-05-06 18:03 47.24892 7.93544 15810 ft 299 kts 246°
2026-05-06 18:04 47.24094 7.90689 16316 ft 303 kts 246°
2026-05-06 18:04 47.23288 7.87810 16816 ft 306 kts 246°
2026-05-06 18:04 47.22472 7.84899 17328 ft 309 kts 246°
2026-05-06 18:04 47.21645 7.81953 17836 ft 313 kts 246°
2026-05-06 18:05 47.20811 7.78985 18352 ft 316 kts 245°
2026-05-06 18:05 47.19883 7.76045 18813 ft 318 kts 240°
2026-05-06 18:05 47.18799 7.73202 19292 ft 320 kts 237°
2026-05-06 18:05 47.17642 7.70402 19776 ft 322 kts 236°
2026-05-06 18:06 47.16364 7.67697 20249 ft 323 kts 230°
2026-05-06 18:06 47.14982 7.65083 20716 ft 325 kts 230°
2026-05-06 18:06 47.13577 7.62460 21160 ft 327 kts 230°
2026-05-06 18:06 47.12162 7.59839 21687 ft 327 kts 229°
2026-05-06 18:07 47.10741 7.57221 22118 ft 329 kts 229°
2026-05-06 18:07 47.09309 7.54578 22548 ft 332 kts 229°
2026-05-06 18:07 47.07867 7.51919 22983 ft 334 kts 229°
2026-05-06 18:07 47.06413 7.49236 23431 ft 337 kts 229°
2026-05-06 18:08 47.04956 7.46540 23816 ft 338 kts 229°
2026-05-06 18:08 47.03488 7.43841 24223 ft 339 kts 228°
2026-05-06 18:08 47.02012 7.41143 24624 ft 340 kts 228°
2026-05-06 18:08 47.00526 7.38432 24971 ft 344 kts 229°
2026-05-06 18:09 46.99055 7.35747 25244 ft 347 kts 229°
2026-05-06 18:09 46.97541 7.32990 25597 ft 349 kts 229°
2026-05-06 18:09 46.96016 7.30213 25938 ft 351 kts 229°
2026-05-06 18:09 46.94490 7.27413 26280 ft 352 kts 229°
2026-05-06 18:10 46.92959 7.24619 26651 ft 353 kts 230°
2026-05-06 18:10 46.91420 7.21805 26983 ft 355 kts 230°
2026-05-06 18:10 46.89873 7.18991 27315 ft 356 kts 230°
2026-05-06 18:10 46.88315 7.16157 27640 ft 358 kts 230°
2026-05-06 18:11 46.86772 7.13350 27955 ft 359 kts 230°
2026-05-06 18:11 46.85200 7.10495 28275 ft 361 kts 230°
2026-05-06 18:11 46.83621 7.07632 28605 ft 363 kts 230°
2026-05-06 18:11 46.82033 7.04752 28923 ft 365 kts 230°
2026-05-06 18:12 46.80438 7.01864 29274 ft 365 kts 230°
2026-05-06 18:12 46.78844 6.98981 29690 ft 364 kts 230°
2026-05-06 18:12 46.77250 6.96101 30066 ft 364 kts 230°
2026-05-06 18:12 46.75663 6.93236 30424 ft 360 kts 229°
2026-05-06 18:13 46.74111 6.90439 30749 ft 347 kts 230°
2026-05-06 18:13 46.72629 6.87760 30799 ft 337 kts 230°
2026-05-06 18:13 46.69604 6.82332 30904 ft 352 kts 230°
2026-05-06 18:14 46.66472 6.76654 30942 ft 365 kts 229°
2026-05-06 18:14 46.63086 6.71247 30916 ft 359 kts 226°
2026-05-06 18:15 46.59667 6.65931 30921 ft 360 kts 226°
2026-05-06 18:15 46.56234 6.60610 30915 ft 360 kts 226°
2026-05-06 18:16 46.52830 6.55339 30922 ft 360 kts 226°
2026-05-06 18:16 46.49397 6.50035 30920 ft 360 kts 226°
2026-05-06 18:17 46.45965 6.44741 30923 ft 360 kts 226°
2026-05-06 18:17 46.42477 6.39372 30920 ft 367 kts 226°
2026-05-06 18:18 46.38987 6.34014 30917 ft 365 kts 226°
2026-05-06 18:18 46.35521 6.28695 30917 ft 363 kts 226°
2026-05-06 18:19 46.32047 6.23378 30913 ft 363 kts 226°
2026-05-06 18:19 46.28573 6.18072 30912 ft 363 kts 226°
2026-05-06 18:20 46.24644 6.13922 30918 ft 365 kts 205°
2026-05-06 18:20 46.19707 6.12005 30913 ft 367 kts 192°
2026-05-06 18:21 46.14699 6.10838 30914 ft 367 kts 191°
2026-05-06 18:21 46.09719 6.09735 30914 ft 367 kts 190°
2026-05-06 18:22 46.07192 6.09195 30754 ft 368 kts 192°
2026-05-06 18:22 46.04626 6.08597 30536 ft 381 kts 191°
2026-05-06 18:22 46.01951 6.08008 30335 ft 395 kts 191°
2026-05-06 18:22 45.99328 6.07436 30123 ft 397 kts 191°
2026-05-06 18:23 45.96615 6.06829 29891 ft 392 kts 192°
2026-05-06 18:23 45.94409 6.06337 29667 ft 393 kts 192°
2026-05-06 18:23 45.91692 6.05747 29385 ft 395 kts 192°
2026-05-06 18:23 45.88973 6.05150 29108 ft 396 kts 191°
2026-05-06 18:24 45.86281 6.04557 28987 ft 396 kts 192°
2026-05-06 18:24 45.83613 6.03967 28940 ft 398 kts 192°
2026-05-06 18:24 45.78153 6.02763 28916 ft 395 kts 192°
2026-05-06 18:25 45.72747 6.01564 28936 ft 396 kts 192°
2026-05-06 18:25 45.67302 6.00366 28903 ft 395 kts 192°
2026-05-06 18:26 45.61861 5.99169 28909 ft 396 kts 192°
2026-05-06 18:26 45.56783 5.98054 28931 ft 393 kts 193°
2026-05-06 18:27 45.51383 5.96857 28907 ft 392 kts 195°
2026-05-06 18:27 45.48782 5.95759 28909 ft 387 kts 206°
2026-05-06 18:27 45.46421 5.93980 28885 ft 382 kts 218°
2026-05-06 18:28 45.44464 5.91484 28920 ft 380 kts 229°
2026-05-06 18:28 45.42633 5.88739 28925 ft 381 kts 226°
2026-05-06 18:28 45.38946 5.83455 28893 ft 375 kts 227°
2026-05-06 18:29 45.35285 5.78219 28923 ft 380 kts 227°
2026-05-06 18:29 45.31549 5.72883 28933 ft 380 kts 227°
2026-05-06 18:30 45.27965 5.67777 28954 ft 395 kts 227°
2026-05-06 18:30 45.24184 5.62401 28906 ft 390 kts 227°
2026-05-06 18:31 45.20365 5.56977 28936 ft 388 kts 226°
2026-05-06 18:31 45.16547 5.51574 28895 ft 389 kts 227°
2026-05-06 18:32 45.12747 5.46205 28922 ft 388 kts 226°
2026-05-06 18:32 45.08923 5.40806 28941 ft 388 kts 226°
2026-05-06 18:33 45.05096 5.35416 28929 ft 388 kts 226°
2026-05-06 18:33 45.01238 5.30000 28921 ft 393 kts 226°
2026-05-06 18:34 44.97397 5.24613 28910 ft 391 kts 226°
2026-05-06 18:34 44.93532 5.19207 28890 ft 391 kts 226°
2026-05-06 18:35 44.89667 5.13808 28933 ft 391 kts 226°
2026-05-06 18:35 44.85809 5.08426 28900 ft 389 kts 226°
2026-05-06 18:36 44.82597 5.03966 28933 ft 390 kts 226°
2026-05-06 18:36 44.80703 5.01336 28859 ft 373 kts 226°
2026-05-06 18:36 44.78885 4.98811 28473 ft 361 kts 226°
2026-05-06 18:37 44.77127 4.96373 28112 ft 350 kts 226°
2026-05-06 18:37 44.75394 4.93985 27788 ft 350 kts 224°
2026-05-06 18:37 44.73412 4.91925 27453 ft 358 kts 212°
2026-05-06 18:37 44.71314 4.90585 27170 ft 362 kts 202°
2026-05-06 18:38 44.68850 4.89816 26870 ft 365 kts 190°
2026-05-06 18:38 44.66296 4.89798 26564 ft 370 kts 178°
2026-05-06 18:38 44.63756 4.90458 26275 ft 373 kts 171°
2026-05-06 18:38 44.61243 4.91357 25974 ft 372 kts 170°
2026-05-06 18:39 44.58747 4.92309 25680 ft 371 kts 169°
2026-05-06 18:39 44.56296 4.93257 25388 ft 370 kts 169°
2026-05-06 18:39 44.54109 4.94098 25132 ft 368 kts 169°
2026-05-06 18:40 44.49136 4.95516 24535 ft 362 kts 175°
2026-05-06 18:40 44.46653 4.96103 24247 ft 361 kts 176°
2026-05-06 18:40 44.44165 4.96678 23678 ft 363 kts 175°
2026-05-06 18:40 44.41670 4.97256 22990 ft 363 kts 175°
2026-05-06 18:41 44.39210 4.97824 22264 ft 362 kts 175°
2026-05-06 18:41 44.37023 4.98331 21616 ft 362 kts 175°
2026-05-06 18:41 44.34544 4.98905 20900 ft 362 kts 175°
2026-05-06 18:41 44.32061 4.99479 20196 ft 362 kts 174°
2026-05-06 18:42 44.29651 5.00037 19524 ft 361 kts 174°
2026-05-06 18:42 44.27173 5.00610 18842 ft 360 kts 174°
2026-05-06 18:42 44.24704 5.01182 18261 ft 357 kts 174°
2026-05-06 18:42 44.22295 5.01737 17631 ft 354 kts 174°
2026-05-06 18:43 44.19892 5.02292 17036 ft 350 kts 174°
2026-05-06 18:43 44.17828 5.02768 16528 ft 347 kts 174°
2026-05-06 18:43 44.15537 5.03293 15953 ft 344 kts 173°
2026-05-06 18:43 44.13187 5.03835 15363 ft 341 kts 174°
2026-05-06 18:44 44.10874 5.04368 15045 ft 330 kts 174°
2026-05-06 18:44 44.08648 5.04882 14957 ft 318 kts 174°
2026-05-06 18:44 44.06474 5.05376 14915 ft 317 kts 174°
2026-05-06 18:44 44.04278 5.05878 14908 ft 320 kts 174°
2026-05-06 18:45 44.02520 5.06284 14911 ft 320 kts 174°
2026-05-06 18:45 44.00705 5.06698 14918 ft 320 kts 174°
2026-05-06 18:45 43.98510 5.07203 14917 ft 320 kts 174°
2026-05-06 18:45 43.96308 5.07705 14915 ft 320 kts 174°
2026-05-06 18:46 43.94108 5.08208 14914 ft 320 kts 174°
2026-05-06 18:46 43.91917 5.08758 14908 ft 322 kts 169°
2026-05-06 18:46 43.89773 5.09737 14912 ft 325 kts 163°
2026-05-06 18:46 43.87638 5.10757 14923 ft 324 kts 167°
2026-05-06 18:47 43.85748 5.11597 14913 ft 326 kts 161°
2026-05-06 18:47 43.84262 5.12842 14907 ft 332 kts 143°
2026-05-06 18:47 43.82509 5.14833 14920 ft 331 kts 150°
2026-05-06 18:47 43.80468 5.16229 14915 ft 326 kts 163°
2026-05-06 18:48 43.78298 5.17092 14922 ft 323 kts 171°
2026-05-06 18:48 43.76098 5.17527 14917 ft 319 kts 182°
2026-05-06 18:48 43.74095 5.17637 14914 ft 320 kts 179°
2026-05-06 18:48 43.72020 5.17982 14910 ft 321 kts 175°
2026-05-06 18:49 43.69817 5.18499 14907 ft 323 kts 173°
2026-05-06 18:49 43.67701 5.19263 14921 ft 326 kts 166°
2026-05-06 18:49 43.66205 5.19913 14857 ft 328 kts 166°
2026-05-06 18:49 43.64037 5.20867 14637 ft 326 kts 166°
2026-05-06 18:50 43.61889 5.21811 14416 ft 323 kts 168°
2026-05-06 18:50 43.59916 5.22398 14218 ft 320 kts 175°
2026-05-06 18:50 43.57742 5.22741 13982 ft 318 kts 179°
2026-05-06 18:50 43.55542 5.22921 13669 ft 313 kts 182°
2026-05-06 18:51 43.53432 5.22805 13414 ft 301 kts 188°
2026-05-06 18:51 43.51482 5.22598 13442 ft 300 kts 188°
2026-05-06 18:51 43.49468 5.22353 13479 ft 303 kts 189°
2026-05-06 18:51 43.47716 5.22126 13515 ft 304 kts 190°
2026-05-06 18:52 43.45629 5.21840 13193 ft 306 kts 188°
2026-05-06 18:52 43.43528 5.21607 12768 ft 294 kts 188°
2026-05-06 18:52 43.41663 5.21395 12386 ft 292 kts 188°
2026-05-06 18:52 43.39624 5.21161 11907 ft 296 kts 188°
2026-05-06 18:53 43.37572 5.20929 11272 ft 294 kts 188°
2026-05-06 18:53 43.35701 5.20716 10691 ft 290 kts 188°
2026-05-06 18:53 43.33815 5.20500 10122 ft 288 kts 188°
2026-05-06 18:53 43.31870 5.20284 9507 ft 287 kts 187°
2026-05-06 18:54 43.30264 5.20341 8959 ft 289 kts 176°
2026-05-06 18:54 43.28333 5.20960 8270 ft 282 kts 164°
2026-05-06 18:54 43.26532 5.21978 7521 ft 278 kts 156°
2026-05-06 18:54 43.24912 5.23395 6786 ft 275 kts 140°
2026-05-06 18:55 43.23787 5.25485 6053 ft 272 kts 114°
2026-05-06 18:55 43.23182 5.27882 5322 ft 267 kts 103°
2026-05-06 18:55 43.23083 5.30326 4882 ft 249 kts 74°
2026-05-06 18:55 43.23840 5.32343 4479 ft 235 kts 40°
2026-05-06 18:56 43.25221 5.33387 4060 ft 227 kts
2026-05-06 18:56 43.26770 5.33363 3707 ft 222 kts 351°
2026-05-06 18:56 43.28296 5.33129 3321 ft 216 kts 350°
2026-05-06 18:56 43.29765 5.32904 2937 ft 211 kts 351°
2026-05-06 18:57 43.31227 5.32801 2630 ft 210 kts 354°
2026-05-06 18:57 43.32698 5.32757 2825 ft 214 kts 354°
2026-05-06 18:57 43.34192 5.32698 2930 ft 214 kts 349°
2026-05-06 18:57 43.35582 5.32132 2882 ft 211 kts 330°
2026-05-06 18:58 43.36840 5.31134 2442 ft 197 kts 318°
2026-05-06 18:58 43.37731 5.29923 2091 ft 179 kts 309°
2026-05-06 18:58 43.38582 5.28724 2046 ft 156 kts 312°
2026-05-06 18:58 43.39342 5.27682 1856 ft 146 kts 310°
2026-05-06 18:59 43.40037 5.26704 1359 ft 144 kts 309°
2026-05-06 18:59 43.40718 5.25707 889 ft 141 kts 308°
2026-05-06 18:59 43.41375 5.24782 661 ft 131 kts 308°
2026-05-06 18:59 43.42016 5.23858 427 ft 136 kts 312°
2026-05-06 19:00 43.42710 5.22884 212 ft 148 kts 311°
2026-05-06 19:00 43.43413 5.21874 47 ft 142 kts 311°
2026-05-06 19:00 43.44016 5.21008 34 ft 110 kts 314°
2026-05-06 19:00 43.44434 5.20409 35 ft 66 kts 313°
2026-05-06 19:01 43.44652 5.20262 35 ft 27 kts 41°
2026-05-06 19:01 43.44604 5.20443 36 ft 20 kts 133°
2026-05-06 19:01 43.44505 5.20584 36 ft 20 kts 133°
2026-05-06 19:01 43.44407 5.20724 36 ft 20 kts 133°
2026-05-06 19:02 43.44314 5.20869 36 ft 19 kts 117°
2026-05-06 19:02 43.44247 5.21022 35 ft 18 kts 131°
2026-05-06 19:02 43.44156 5.21153 36 ft 19 kts 136°
2026-05-06 19:02 43.44060 5.21283 36 ft 20 kts 131°
2026-05-06 19:03 43.43964 5.21421 36 ft 21 kts 135°
2026-05-06 19:03 43.43938 5.21581 36 ft 17 kts 60°
2026-05-06 19:03 43.44018 5.21680 36 ft 16 kts 41°
2026-05-06 19:03 43.44077 5.21751 35 ft 0 kts 41°
2026-05-06 19:04 43.44090 5.21770 36 ft 8 kts 45°
2026-05-06 19:04 43.44106 5.21859 36 ft 2 kts 107°
2026-05-06 19:04 43.44110 5.21906 36 ft 10 kts 80°
2026-05-06 19:04 43.44148 5.21957 36 ft 0 kts 30°
2026-05-06 19:05 43.44156 5.21964 36 ft 0 kts 30°